Fort Lewis, WA

2:29 PM PDT on May 23, 2017 (GMT -0700)
Gray Army Air Field

Weather History for KGRF - May, 2013

Change the Weather History Date:

Tuesday, May 21, 2013

  Actual Average Record
Temperature  
Mean Temperature 50 °F -  
Max Temperature 57 °F 65 °F 79 °F (2015)
Min Temperature 44 °F 44 °F 39 °F (2005)
Degree Days  
Heating Degree Days 14    
Moisture  
Dew Point 44 °F    
Average Humidity 80    
Maximum Humidity 100    
Minimum Humidity 58    
Precipitation  
Precipitation 0.48 in - - ()
Sea Level Pressure  
Sea Level Pressure 29.85 in    
Wind  
Wind Speed 9 mph (South)    
Max Wind Speed 17 mph    
Max Gust Speed 23 mph    
Visibility 9 miles    
Events Rain    
Averages and records for this station are not official NWS values.
T = Trace of Precipitation, MM = Missing Value Source: NWS Daily Summary

Daily Weather History Graph

Daily Weather History Graph

Search for Another Location

Airport or City:

Trip Planner

Search our weather history database for the weather conditions in past years. The results will help you decide how hot, cold, wet, or windy it might be!

Date:

Astronomy

May. 21, 2013 Rise Set
Actual Time 5:27 AM PDT 8:47 PM PDT
Civil Twilight 4:50 AM PDT 9:24 PM PDT
Nautical Twilight 4:01 AM PDT 10:13 PM PDT
Astronomical Twilight 3:00 AM PDT 11:15 PM PDT
Moon 4:54 PM PDT (5/21) 3:14 AM PDT (5/21)
Length of Visible Light 16h 33m
Length of Day
15h 19m
Waxing Gibbous, 85% of the Moon is Illuminated
May 21
Waxing Gibbous
May 24
Full
May 31
Last Quarter
Jun 8
New
Jun 16
First Quarter

Hourly Weather History & Observations

Time (PDT) Temp. Windchill Dew Point Humidity Pressure Visibility Wind Dir Wind Speed Gust Speed Precip Events Conditions
12:36 AM 51.8 °F - 41.0 °F 67% 29.92 in 10.0 mi WSW 12.7 mph 19.6 mph N/A   Light Drizzle
12:58 AM 48.0 °F - 44.1 °F 86% 29.94 in 10.0 mi WSW 5.8 mph - 0.01 in   Light Drizzle
1:20 AM 48.2 °F - 44.6 °F 87% 29.93 in 5.0 mi SSW 5.8 mph - N/A Rain Light Rain
1:58 AM 46.9 °F - 45.1 °F 93% 29.94 in 5.0 mi SW 4.6 mph - 0.09 in Rain Light Rain
2:48 AM 46.4 °F 45.2 °F 44.6 °F 93% 29.90 in 7.0 mi SW 3.5 mph - N/A Rain Light Rain
2:58 AM 46.6 °F - 45.3 °F 95% 29.91 in 7.0 mi SSW 5.8 mph - 0.12 in Rain Light Rain
3:08 AM 46.4 °F 44.3 °F 44.6 °F 93% 29.89 in 7.0 mi South 4.6 mph - N/A Rain Light Rain
3:18 AM 46.4 °F 45.2 °F 44.6 °F 93% 29.89 in 7.0 mi South 3.5 mph - N/A Rain Light Rain
3:58 AM 45.9 °F 42.9 °F 43.3 °F 91% 29.89 in 7.0 mi SSW 5.8 mph - 0.11 in Rain Light Rain
4:58 AM 45.0 °F 42.6 °F 43.2 °F 93% 29.89 in 10.0 mi SE 4.6 mph - 0.07 in   Light Drizzle
5:37 AM 44.6 °F 41.4 °F 44.6 °F 100% 29.87 in 10.0 mi SE 5.8 mph - N/A   Overcast
5:58 AM 45.3 °F 41.6 °F 44.4 °F 97% 29.88 in 10.0 mi SSE 6.9 mph - 0.02 in   Overcast
6:30 AM 46.4 °F 41.9 °F 44.6 °F 93% 29.87 in 10.0 mi SSE 9.2 mph - N/A   Light Drizzle
6:41 AM 44.6 °F 40.7 °F 44.6 °F 100% 29.87 in 10.0 mi SSE 6.9 mph - N/A   Overcast
6:58 AM 45.5 °F 41.8 °F 44.4 °F 96% 29.87 in 9.0 mi SSE 6.9 mph - 0.01 in   Overcast
7:03 AM 44.6 °F 40.2 °F 44.6 °F 100% 29.86 in 8.0 mi SSE 8.1 mph - N/A   Overcast
7:11 AM 46.4 °F 41.9 °F 44.6 °F 93% 29.86 in 7.0 mi SE 9.2 mph - N/A   Overcast
7:27 AM 46.4 °F 41.9 °F 44.6 °F 93% 29.85 in 6.0 mi SE 9.2 mph - N/A   Overcast
7:32 AM 46.4 °F 41.5 °F 44.6 °F 93% 29.85 in 6.0 mi SE 10.4 mph - N/A   Overcast
7:42 AM 46.4 °F 42.4 °F 44.6 °F 93% 29.85 in 9.0 mi SSE 8.1 mph - N/A   Overcast
7:47 AM 46.4 °F 42.4 °F 44.6 °F 93% 29.85 in 10.0 mi SE 8.1 mph - N/A   Overcast
7:53 AM 46.4 °F 42.4 °F 44.6 °F 93% 29.85 in 10.0 mi SE 8.1 mph - N/A   Overcast
7:58 AM 46.0 °F 41.4 °F 45.3 °F 97% 29.86 in 10.0 mi SE 9.2 mph - 0.01 in   Overcast
8:03 AM 46.4 °F 41.9 °F 44.6 °F 93% 29.85 in 10.0 mi SSE 9.2 mph - N/A   Overcast
8:13 AM 46.4 °F 42.4 °F 44.6 °F 93% 29.85 in 10.0 mi SSE 8.1 mph - N/A   Overcast
8:58 AM 47.8 °F - 45.7 °F 92% 29.84 in 10.0 mi South 5.8 mph - N/A   Overcast
9:08 AM 48.2 °F - 44.6 °F 87% 29.82 in 10.0 mi South 8.1 mph - N/A   Overcast
9:33 AM 50.0 °F - 46.4 °F 87% 29.82 in 10.0 mi South 10.4 mph - N/A   Overcast
9:38 AM 50.0 °F - 46.4 °F 87% 29.82 in 10.0 mi South 10.4 mph - N/A   Overcast
9:58 AM 51.1 °F - 46.4 °F 84% 29.83 in 10.0 mi South 13.8 mph - N/A   Overcast
10:08 AM 50.0 °F - 44.6 °F 82% 29.82 in 10.0 mi South 9.2 mph - N/A   Overcast
10:13 AM 50.0 °F - 44.6 °F 82% 29.82 in 10.0 mi Variable 5.8 mph - N/A   Overcast
10:23 AM 50.0 °F - 44.6 °F 82% 29.82 in 10.0 mi SE 6.9 mph - N/A   Overcast
10:28 AM 50.0 °F - 44.6 °F 82% 29.82 in 10.0 mi Variable 5.8 mph - N/A   Overcast
10:58 AM 50.7 °F - 44.4 °F 79% 29.83 in 10.0 mi South 10.4 mph - N/A   Overcast
11:33 AM 53.6 °F - 46.4 °F 77% 29.81 in 10.0 mi South 15.0 mph - N/A   Scattered Clouds
11:58 AM 54.5 °F - 45.0 °F 70% 29.81 in 10.0 mi SSW 11.5 mph - N/A   Mostly Cloudy
12:08 PM 53.6 °F - 44.6 °F 72% 29.80 in 10.0 mi South 9.2 mph - N/A   Mostly Cloudy
12:23 PM 53.6 °F - 42.8 °F 67% 29.80 in 10.0 mi SSW 10.4 mph - N/A   Mostly Cloudy
12:48 PM 53.6 °F - 44.6 °F 72% 29.80 in 10.0 mi SSW 8.1 mph - N/A   Mostly Cloudy
12:53 PM 55.4 °F - 42.8 °F 63% 29.80 in 10.0 mi South 10.4 mph - N/A   Mostly Cloudy
12:58 PM 55.6 °F - 43.3 °F 63% 29.81 in 10.0 mi SW 12.7 mph 17.3 mph N/A   Overcast
1:08 PM 55.4 °F - 44.6 °F 67% 29.80 in 10.0 mi South 12.7 mph - N/A   Mostly Cloudy
1:13 PM 57.2 °F - 42.8 °F 59% 29.80 in 10.0 mi South 12.7 mph 18.4 mph N/A   Mostly Cloudy
1:31 PM 53.6 °F - 44.6 °F 72% 29.81 in 7.0 mi SSW 15.0 mph 20.7 mph N/A   Overcast
1:34 PM 51.8 °F - 44.6 °F 76% 29.81 in 5.0 mi SW 11.5 mph 19.6 mph N/A Rain Light Rain
1:58 PM 50.0 °F - 46.0 °F 86% 29.83 in 10.0 mi South 10.4 mph - 0.03 in   Light Drizzle
2:02 PM 50.0 °F - 48.2 °F 94% 29.81 in 10.0 mi SSW 10.4 mph - N/A   Mostly Cloudy
2:10 PM 51.8 °F - 46.4 °F 82% 29.81 in 10.0 mi South 11.5 mph - N/A   Light Drizzle
2:26 PM 51.8 °F - 46.4 °F 82% 29.81 in 10.0 mi South 5.8 mph - N/A   Mostly Cloudy
2:58 PM 53.6 °F - 48.4 °F 82% 29.83 in 10.0 mi South 6.9 mph - 0.01 in   Mostly Cloudy
3:58 PM 56.1 °F - 43.9 °F 64% 29.81 in 10.0 mi SW 16.1 mph - N/A   Scattered Clouds
4:26 PM 57.2 °F - 42.8 °F 59% 29.80 in 10.0 mi South 11.5 mph 20.7 mph N/A   Partly Cloudy
4:53 PM 55.4 °F - 41.0 °F 58% 29.80 in 10.0 mi WSW 12.7 mph 20.7 mph N/A   Overcast
4:58 PM 55.2 °F - 40.8 °F 58% 29.82 in 10.0 mi SSW 8.1 mph - N/A   Overcast
5:23 PM 55.4 °F - 41.0 °F 58% 29.80 in 10.0 mi SSW 17.3 mph 23.0 mph N/A   Mostly Cloudy
5:58 PM 54.5 °F - 41.4 °F 61% 29.83 in 10.0 mi SSW 10.4 mph 18.4 mph N/A   Overcast
6:53 PM 51.8 °F - 41.0 °F 67% 29.84 in 10.0 mi SSW 12.7 mph - N/A   Mostly Cloudy
6:58 PM 52.2 °F - 40.6 °F 65% 29.86 in 10.0 mi SW 13.8 mph - N/A   Mostly Cloudy
7:43 PM 50.0 °F - 39.2 °F 66% 29.86 in 10.0 mi SW 10.4 mph - N/A   Mostly Cloudy
7:48 PM 50.0 °F - 39.2 °F 66% 29.86 in 10.0 mi SW 9.2 mph - N/A   Mostly Cloudy
7:58 PM 50.7 °F - 39.9 °F 67% 29.88 in 10.0 mi SSW 6.9 mph - N/A   Overcast
8:18 PM 50.0 °F - 39.2 °F 66% 29.86 in 10.0 mi SSW 9.2 mph - N/A   Overcast
8:58 PM 49.5 °F - 39.9 °F 70% 29.88 in 10.0 mi South 12.7 mph - N/A   Overcast
9:08 PM 50.0 °F - 41.0 °F 71% 29.87 in 10.0 mi South 11.5 mph - N/A   Overcast
9:58 PM 48.0 °F - 40.6 °F 76% 29.90 in 10.0 mi South 8.1 mph - N/A   Overcast
10:23 PM 48.2 °F - 41.0 °F 76% 29.88 in 10.0 mi South 11.5 mph 17.3 mph N/A   Overcast
10:33 PM 48.2 °F - 41.0 °F 76% 29.88 in 10.0 mi South 10.4 mph - N/A   Overcast
10:38 PM 48.2 °F - 41.0 °F 76% 29.89 in 10.0 mi South 9.2 mph - N/A   Overcast
10:58 PM 47.5 °F - 40.6 °F 77% 29.91 in 10.0 mi South 10.4 mph - N/A   Overcast
11:08 PM 48.2 °F - 41.0 °F 76% 29.89 in 10.0 mi South 11.5 mph - N/A   Overcast
11:58 PM 46.9 °F - 40.5 °F 78% 29.90 in 10.0 mi South 11.5 mph 18.4 mph N/A   Overcast